When you browse on this site, cookies collect data to enhance your experience and personalize the content and advertising you see.
Visit our Privacy Policy to learn more. By continuing to use the site, you agree to this use of cookies and data.
  • In Österreich
  • Länderverzeichnis
  • Für 7 Tage
  • Wassertemperatur
  • Wetterkarte
  • News
  • Widgets
  • user-avatar
    Anmelden

    Stündliche Wetter Ixmiquilpan

    Heute, 22 Januar, Mittwoch

    Zeit Temperatur Niederschläge Wind Luftdruck Luftfeuchtigkeit
    00:00 +12°C° 0 mm 1 m/S 623 mmHg 84%
    01:00 +12°C° 0 mm 1 m/S 622 mmHg 85%
    02:00 +11°C° 0 mm 1 m/S 621 mmHg 86%
    03:00 +11°C° 0 mm 1 m/S 621 mmHg 86%
    04:00 +11°C° 0 mm 1 m/S 621 mmHg 86%
    05:00 +11°C° 0 mm 1 m/S 621 mmHg 86%
    06:00 +12°C° 0 mm 2 m/S 622 mmHg 78%
    07:00 +14°C° 0 mm 2 m/S 622 mmHg 71%
    08:00 +15°C° 0 mm 2 m/S 623 mmHg 64%
    09:00 +17°C° 0 mm 3 m/S 623 mmHg 56%
    10:00 +20°C° 0 mm 3 m/S 624 mmHg 49%
    11:00 +22°C° 0 mm 4 m/S 624 mmHg 42%
    12:00 +23°C° 0 mm 4 m/S 623 mmHg 39%
    13:00 +25°C° 0 mm 5 m/S 623 mmHg 37%
    14:00 +26°C° 0 mm 5 m/S 622 mmHg 35%
    15:00 +25°C° 0 mm 5 m/S 622 mmHg 39%
    16:00 +23°C° 0 mm 4 m/S 621 mmHg 43%
    17:00 +22°C° 0 mm 4 m/S 621 mmHg 47%
    18:00 +20°C° 0 mm 3 m/S 621 mmHg 54%
    19:00 +19°C° 0 mm 2 m/S 622 mmHg 61%
    20:00 +18°C° 0 mm 2 m/S 622 mmHg 67%
    21:00 +17°C° 0 mm 2 m/S 622 mmHg 72%
    22:00 +17°C° 0 mm 2 m/S 622 mmHg 77%
    23:00 +16°C° 0 mm 2 m/S 622 mmHg 82%

    Morgen, 23 Januar, Donnerstag

    Zeit Temperatur Niederschläge Wind Luftdruck Luftfeuchtigkeit
    00:00 +15°C° 0 mm 2 m/S 621 mmHg 85%
    01:00 +15°C° 0 mm 2 m/S 620 mmHg 88%
    02:00 +14°C° 0 mm 1 m/S 620 mmHg 91%
    03:00 +14°C° 0 mm 1 m/S 620 mmHg 90%
    04:00 +14°C° 0 mm 1 m/S 620 mmHg 88%
    05:00 +13°C° 0 mm 0 m/S 619 mmHg 87%
    06:00 +15°C° 0 mm 1 m/S 620 mmHg 83%
    07:00 +15°C° 0 mm 1 m/S 621 mmHg 79%
    08:00 +16°C° 0 mm 1 m/S 622 mmHg 75%
    09:00 +19°C° 0.2 mm 1 m/S 622 mmHg 67%
    10:00 +19°C° 0.2 mm 2 m/S 622 mmHg 59%
    11:00 +21°C° 0.2 mm 3 m/S 622 mmHg 51%
    12:00 +20°C° 0.3 mm 3 m/S 621 mmHg 54%
    13:00 +19°C° 0.3 mm 3 m/S 620 mmHg 57%
    14:00 +18°C° 0.3 mm 3 m/S 619 mmHg 60%
    15:00 +18°C° 0.3 mm 3 m/S 619 mmHg 64%
    16:00 +17°C° 0.3 mm 2 m/S 619 mmHg 68%
    17:00 +16°C° 0.3 mm 1 m/S 619 mmHg 72%
    18:00 +16°C° 0.1 mm 1 m/S 620 mmHg 75%
    19:00 +16°C° 0.1 mm 1 m/S 620 mmHg 78%
    20:00 +15°C° 0.1 mm 1 m/S 621 mmHg 81%
    21:00 +15°C° 0 mm 1 m/S 621 mmHg 83%
    22:00 +15°C° 0 mm 1 m/S 621 mmHg 84%
    23:00 +14°C° 0 mm 1 m/S 621 mmHg 86%

    übermorgen, 24 Januar, Freitag

    Zeit Temperatur Niederschläge Wind Luftdruck Luftfeuchtigkeit
    00:00 +14°C° 0 mm 1 m/S 620 mmHg 87%
    01:00 +14°C° 0 mm 1 m/S 620 mmHg 88%
    02:00 +14°C° 0 mm 1 m/S 620 mmHg 89%
    03:00 +14°C° 0 mm 1 m/S 620 mmHg 90%
    04:00 +14°C° 0 mm 1 m/S 620 mmHg 91%
    05:00 +13°C° 0 mm 1 m/S 620 mmHg 91%
    06:00 +14°C° 0 mm 1 m/S 621 mmHg 89%
    07:00 +14°C° 0 mm 1 m/S 621 mmHg 87%
    08:00 +14°C° 0 mm 1 m/S 622 mmHg 85%
    09:00 +15°C° 0 mm 1 m/S 622 mmHg 81%
    10:00 +16°C° 0 mm 1 m/S 622 mmHg 76%
    11:00 +18°C° 0 mm 1 m/S 622 mmHg 72%
    12:00 +17°C° 0 mm 2 m/S 622 mmHg 69%
    13:00 +18°C° 0 mm 2 m/S 621 mmHg 66%
    14:00 +19°C° 0 mm 2 m/S 621 mmHg 62%
    15:00 +18°C° 0.1 mm 2 m/S 621 mmHg 67%
    16:00 +18°C° 0.1 mm 2 m/S 621 mmHg 72%
    17:00 +17°C° 0.1 mm 3 m/S 621 mmHg 77%
    18:00 +16°C° 0 mm 2 m/S 621 mmHg 82%
    19:00 +15°C° 0 mm 2 m/S 621 mmHg 86%
    20:00 +15°C° 0 mm 1 m/S 621 mmHg 90%
    21:00 +14°C° 0 mm 1 m/S 621 mmHg 91%
    22:00 +14°C° 0 mm 1 m/S 621 mmHg 92%
    23:00 +14°C° 0 mm 1 m/S 621 mmHg 93%

    25 Januar, Samstag

    Zeit Temperatur Niederschläge Wind Luftdruck Luftfeuchtigkeit
    00:00 +14°C° 0 mm 1 m/S 621 mmHg 92%
    01:00 +13°C° 0 mm 0 m/S 621 mmHg 91%
    02:00 +13°C° 0 mm 0 m/S 620 mmHg 89%
    03:00 +13°C° 0 mm 0 m/S 621 mmHg 89%
    04:00 +14°C° 0 mm 1 m/S 621 mmHg 88%
    05:00 +14°C° 0 mm 1 m/S 621 mmHg 88%
    06:00 +14°C° 0 mm 1 m/S 621 mmHg 82%
    07:00 +15°C° 0 mm 1 m/S 622 mmHg 77%
    08:00 +16°C° 0 mm 1 m/S 623 mmHg 71%
    09:00 +19°C° 0 mm 1 m/S 623 mmHg 62%
    10:00 +21°C° 0 mm 1 m/S 623 mmHg 52%
    11:00 +23°C° 0 mm 1 m/S 624 mmHg 43%
    12:00 +24°C° 0 mm 1 m/S 623 mmHg 40%
    13:00 +24°C° 0 mm 1 m/S 623 mmHg 37%
    14:00 +25°C° 0 mm 2 m/S 623 mmHg 34%
    15:00 +24°C° 0.1 mm 2 m/S 622 mmHg 40%
    16:00 +24°C° 0.1 mm 2 m/S 622 mmHg 46%
    17:00 +23°C° 0.1 mm 2 m/S 621 mmHg 52%
    18:00 +20°C° 0.1 mm 2 m/S 622 mmHg 61%
    19:00 +19°C° 0.1 mm 2 m/S 622 mmHg 69%
    20:00 +18°C° 0.1 mm 1 m/S 622 mmHg 78%
    21:00 +18°C° 0.1 mm 1 m/S 622 mmHg 80%
    22:00 +16°C° 0.1 mm 1 m/S 621 mmHg 82%
    23:00 +15°C° 0.1 mm 0 m/S 621 mmHg 84%

    26 Januar, Sonntag

    Zeit Temperatur Niederschläge Wind Luftdruck Luftfeuchtigkeit
    00:00 +14°C° 0 mm 0 m/S 621 mmHg 84%
    01:00 +14°C° 0 mm 0 m/S 621 mmHg 83%
    02:00 +14°C° 0 mm 0 m/S 620 mmHg 82%
    03:00 +13°C° 0 mm 0 m/S 620 mmHg 81%
    04:00 +13°C° 0 mm 0 m/S 620 mmHg 80%
    05:00 +13°C° 0 mm 0 m/S 620 mmHg 79%
    06:00 +14°C° 0 mm 0 m/S 621 mmHg 73%
    07:00 +16°C° 0 mm 1 m/S 622 mmHg 67%
    08:00 +18°C° 0 mm 1 m/S 623 mmHg 62%
    09:00 +20°C° 0 mm 1 m/S 623 mmHg 55%
    10:00 +20°C° 0 mm 2 m/S 623 mmHg 49%
    11:00 +21°C° 0 mm 2 m/S 623 mmHg 43%
    12:00 +22°C° 0.1 mm 3 m/S 623 mmHg 39%
    13:00 +24°C° 0.1 mm 3 m/S 623 mmHg 36%
    14:00 +25°C° 0.1 mm 4 m/S 622 mmHg 32%
    15:00 +23°C° 0.2 mm 4 m/S 622 mmHg 38%
    16:00 +22°C° 0.2 mm 4 m/S 622 mmHg 43%
    17:00 +21°C° 0.2 mm 3 m/S 622 mmHg 49%
    18:00 +19°C° 0.5 mm 3 m/S 622 mmHg 58%
    19:00 +18°C° 0.5 mm 2 m/S 622 mmHg 67%
    20:00 +16°C° 0.5 mm 1 m/S 622 mmHg 76%
    21:00 +16°C° 0.5 mm 1 m/S 622 mmHg 78%
    22:00 +15°C° 0.5 mm 1 m/S 622 mmHg 80%
    23:00 +15°C° 0.5 mm 1 m/S 622 mmHg 82%

    27 Januar, Montag

    Zeit Temperatur Niederschläge Wind Luftdruck Luftfeuchtigkeit
    00:00 +14°C° 0.1 mm 1 m/S 622 mmHg 85%
    01:00 +14°C° 0.1 mm 1 m/S 621 mmHg 87%
    02:00 +13°C° 0.1 mm 1 m/S 621 mmHg 90%
    03:00 +13°C° 0 mm 1 m/S 621 mmHg 91%
    04:00 +13°C° 0 mm 1 m/S 621 mmHg 92%
    05:00 +13°C° 0 mm 1 m/S 621 mmHg 94%
    06:00 +13°C° 0 mm 1 m/S 621 mmHg 91%
    07:00 +13°C° 0 mm 0 m/S 622 mmHg 88%
    08:00 +13°C° 0 mm 0 m/S 622 mmHg 85%
    09:00 +15°C° 0 mm 0 m/S 622 mmHg 75%
    10:00 +17°C° 0 mm 0 m/S 622 mmHg 65%
    11:00 +18°C° 0 mm 0 m/S 623 mmHg 55%
    12:00 +21°C° 0 mm 1 m/S 622 mmHg 48%
    13:00 +22°C° 0 mm 1 m/S 622 mmHg 41%
    14:00 +24°C° 0 mm 2 m/S 622 mmHg 34%
    15:00 +23°C° 0 mm 2 m/S 621 mmHg 40%
    16:00 +21°C° 0 mm 2 m/S 621 mmHg 45%
    17:00 +20°C° 0 mm 2 m/S 621 mmHg 51%
    18:00 +19°C° 0 mm 2 m/S 621 mmHg 62%
    19:00 +17°C° 0 mm 2 m/S 621 mmHg 73%
    20:00 +16°C° 0 mm 1 m/S 621 mmHg 83%
    21:00 +15°C° 0 mm 1 m/S 621 mmHg 85%
    22:00 +15°C° 0 mm 1 m/S 620 mmHg 87%
    23:00 +14°C° 0 mm 1 m/S 620 mmHg 89%
    Mehr zeigen